Time,TemperatureF,DewpointF,PressureIn,WindDirection,WindDirectionDegrees,WindSpeedMPH,WindSpeedGustMPH,Humidity,HourlyPrecipIn,Conditions,Clouds,dailyrainin,SoftwareType,DateUTC
2013-05-06 00:01:00,47.3,38.7,30.00,SSE,158,1.1,0.0,72,0.00,CLR,,0.00,WeatherDisplay:10.37,2013-05-06 05:01:00,
2013-05-06 00:06:00,47.1,38.6,30.00,SSE,158,0.0,0.0,72,0.00,CLR,,0.00,WeatherDisplay:10.37,2013-05-06 05:06:00,
2013-05-06 00:11:00,47.1,38.9,30.00,SSE,158,0.0,0.0,73,0.00,CLR,,0.00,WeatherDisplay:10.37,2013-05-06 05:11:00,
2013-05-06 00:16:00,46.9,38.7,30.03,SSE,158,0.0,0.0,73,0.00,CLR,,0.00,WeatherDisplay:10.37,2013-05-06 05:16:00,
2013-05-06 00:21:00,46.8,38.2,30.03,SSE,158,0.0,0.0,72,0.00,CLR,,0.00,WeatherDisplay:10.37,2013-05-06 05:21:00,
2013-05-06 00:26:00,46.8,38.6,30.03,SSE,158,0.0,0.0,73,0.00,CLR,,0.00,WeatherDisplay:10.37,2013-05-06 05:26:00,
2013-05-06 00:31:00,46.8,38.9,30.03,SSE,158,0.0,0.0,74,0.00,CLR,,0.00,WeatherDisplay:10.37,2013-05-06 05:31:00,
2013-05-06 00:36:00,46.8,38.9,30.03,SSE,158,0.0,0.0,74,0.00,CLR,,0.00,WeatherDisplay:10.37,2013-05-06 05:36:00,
2013-05-06 00:41:00,46.8,38.9,30.03,SSE,158,0.0,0.0,74,0.00,CLR,,0.00,WeatherDisplay:10.37,2013-05-06 05:41:00,
2013-05-06 00:46:00,46.8,38.9,30.03,SSE,158,0.0,0.0,74,0.00,CLR,,0.00,WeatherDisplay:10.37,2013-05-06 05:46:00,
2013-05-06 00:51:00,46.8,38.9,30.03,SSE,158,0.0,0.0,74,0.00,CLR,,0.00,WeatherDisplay:10.37,2013-05-06 05:51:00,
2013-05-06 00:56:00,46.6,38.7,30.03,SSE,158,0.0,0.0,74,0.00,CLR,,0.00,WeatherDisplay:10.37,2013-05-06 05:56:00,
2013-05-06 01:01:00,46.4,38.9,30.03,SSE,158,0.0,0.0,75,0.00,CLR,,0.00,WeatherDisplay:10.37,2013-05-06 06:01:00,
2013-05-06 01:06:00,46.4,38.6,30.03,SSE,158,0.0,0.0,74,0.00,CLR,,0.00,WeatherDisplay:10.37,2013-05-06 06:06:00,
2013-05-06 01:11:00,46.4,38.9,30.03,SSE,158,0.0,0.0,75,0.00,CLR,,0.00,WeatherDisplay:10.37,2013-05-06 06:11:00,
2013-05-06 01:16:00,46.4,38.9,30.03,SSE,158,0.0,0.0,75,0.00,CLR,,0.00,WeatherDisplay:10.37,2013-05-06 06:16:00,
2013-05-06 01:21:00,46.2,39.1,30.03,SSE,158,0.0,0.0,76,0.00,CLR,,0.00,WeatherDisplay:10.37,2013-05-06 06:21:00,
2013-05-06 01:26:00,46.2,39.1,30.03,SSE,158,0.0,0.0,76,0.00,CLR,,0.00,WeatherDisplay:10.37,2013-05-06 06:26:00,
2013-05-06 01:31:00,46.2,39.1,30.03,SSE,158,0.0,0.0,76,0.00,CLR,,0.00,WeatherDisplay:10.37,2013-05-06 06:31:00,
2013-05-06 01:36:00,46.0,38.9,30.03,SSE,158,0.0,0.0,76,0.00,CLR,,0.00,WeatherDisplay:10.37,2013-05-06 06:36:00,
2013-05-06 01:41:00,46.0,39.2,30.03,SSE,158,0.0,0.0,77,0.00,CLR,,0.00,WeatherDisplay:10.37,2013-05-06 06:41:00,
2013-05-06 01:46:00,45.9,38.7,30.00,SSE,158,1.1,0.0,76,0.00,CLR,,0.00,WeatherDisplay:10.37,2013-05-06 06:46:00,
2013-05-06 01:51:00,45.9,39.1,30.00,SSE,158,1.1,0.0,77,0.00,CLR,,0.00,WeatherDisplay:10.37,2013-05-06 06:51:00,
2013-05-06 01:56:00,45.9,39.1,30.00,SSE,158,0.0,0.0,77,0.00,CLR,,0.00,WeatherDisplay:10.37,2013-05-06 06:56:00,
2013-05-06 02:01:00,45.9,39.1,30.00,SSE,158,0.0,0.0,77,0.00,CLR,,0.00,WeatherDisplay:10.37,2013-05-06 07:01:00,
2013-05-06 02:06:00,46.0,39.2,30.00,SSE,158,0.0,0.0,77,0.00,CLR,,0.00,WeatherDisplay:10.37,2013-05-06 07:06:00,
2013-05-06 02:11:00,46.0,39.6,30.00,SSE,158,0.0,0.0,78,0.00,CLR,,0.00,WeatherDisplay:10.37,2013-05-06 07:11:00,
2013-05-06 02:16:00,46.0,39.6,30.00,SSE,158,0.0,0.0,78,0.00,CLR,,0.00,WeatherDisplay:10.37,2013-05-06 07:16:00,
2013-05-06 02:21:00,46.0,39.6,30.00,SSE,158,1.1,0.0,78,0.00,CLR,,0.00,WeatherDisplay:10.37,2013-05-06 07:21:00,
2013-05-06 02:27:00,45.9,39.1,30.00,SSE,158,0.0,0.0,77,0.00,CLR,,0.00,WeatherDisplay:10.37,2013-05-06 07:27:00,
2013-05-06 02:32:00,45.7,38.9,30.00,SSE,158,0.0,0.0,77,0.00,CLR,,0.00,WeatherDisplay:10.37,2013-05-06 07:32:00,
2013-05-06 02:37:00,45.5,39.0,30.00,SSE,158,0.0,0.0,78,0.00,CLR,,0.00,WeatherDisplay:10.37,2013-05-06 07:37:00,
2013-05-06 02:42:00,45.5,39.4,30.00,SSE,158,0.0,0.0,79,0.00,CLR,,0.00,WeatherDisplay:10.37,2013-05-06 07:42:00,
2013-05-06 02:47:00,45.5,39.4,29.97,SSE,158,0.0,0.0,79,0.00,CLR,,0.00,WeatherDisplay:10.37,2013-05-06 07:47:00,
2013-05-06 02:52:00,45.7,39.9,29.97,SSE,158,0.0,0.0,80,0.00,CLR,,0.00,WeatherDisplay:10.37,2013-05-06 07:52:00,
2013-05-06 02:57:00,45.7,39.9,29.97,SSE,158,0.0,0.0,80,0.00,CLR,,0.00,WeatherDisplay:10.37,2013-05-06 07:57:00,
2013-05-06 03:02:00,45.9,40.0,30.00,SSE,158,0.0,0.0,80,0.00,CLR,,0.00,WeatherDisplay:10.37,2013-05-06 08:02:00,
2013-05-06 03:07:00,45.9,40.0,30.00,SSE,158,0.0,0.0,80,0.00,CLR,,0.00,WeatherDisplay:10.37,2013-05-06 08:07:00,
2013-05-06 03:12:00,45.9,40.0,30.00,NW,315,0.0,0.0,80,0.00,CLR,,0.00,WeatherDisplay:10.37,2013-05-06 08:12:00,
2013-05-06 03:17:00,45.9,40.0,30.00,NW,315,0.0,0.0,80,0.00,CLR,,0.00,WeatherDisplay:10.37,2013-05-06 08:17:00,
2013-05-06 03:22:00,45.9,40.0,30.00,WSW,248,0.0,0.0,80,0.00,CLR,,0.00,WeatherDisplay:10.37,2013-05-06 08:22:00,
2013-05-06 03:27:00,45.7,39.9,30.00,WSW,248,0.0,0.0,80,0.00,CLR,,0.00,WeatherDisplay:10.37,2013-05-06 08:27:00,
2013-05-06 03:32:00,45.5,39.7,30.00,WSW,248,0.0,0.0,80,0.00,CLR,,0.00,WeatherDisplay:10.37,2013-05-06 08:32:00,
2013-05-06 03:37:00,45.5,39.7,30.00,WSW,248,0.0,0.0,80,0.00,CLR,,0.00,WeatherDisplay:10.37,2013-05-06 08:37:00,
2013-05-06 03:42:00,45.5,39.7,30.00,WSW,248,0.0,0.0,80,0.00,CLR,,0.00,WeatherDisplay:10.37,2013-05-06 08:42:00,
2013-05-06 03:47:00,45.3,39.5,30.00,WSW,248,0.0,0.0,80,0.00,CLR,,0.00,WeatherDisplay:10.37,2013-05-06 08:47:00,
2013-05-06 03:52:00,45.3,39.5,30.00,WSW,248,0.0,0.0,80,0.00,CLR,,0.00,WeatherDisplay:10.37,2013-05-06 08:52:00,
2013-05-06 03:57:00,45.1,39.7,30.00,WSW,248,0.0,0.0,81,0.00,CLR,,0.00,WeatherDisplay:10.37,2013-05-06 08:57:00,
2013-05-06 04:02:00,45.1,39.7,30.00,WSW,248,0.0,0.0,81,0.00,CLR,,0.00,WeatherDisplay:10.37,2013-05-06 09:02:00,
2013-05-06 04:07:00,45.1,40.0,30.00,WSW,248,0.0,0.0,82,0.00,CLR,,0.00,WeatherDisplay:10.37,2013-05-06 09:07:00,
2013-05-06 04:12:00,45.1,40.0,30.00,WSW,248,0.0,0.0,82,0.00,CLR,,0.00,WeatherDisplay:10.37,2013-05-06 09:12:00,
2013-05-06 04:17:00,45.0,39.5,30.00,WSW,248,0.0,0.0,81,0.00,CLR,,0.00,WeatherDisplay:10.37,2013-05-06 09:17:00,
2013-05-06 04:22:00,45.1,40.0,30.00,WSW,248,0.0,0.0,82,0.00,CLR,,0.00,WeatherDisplay:10.37,2013-05-06 09:22:00,
2013-05-06 04:27:00,45.1,40.0,30.00,WSW,248,0.0,0.0,82,0.00,CLR,,0.00,WeatherDisplay:10.37,2013-05-06 09:27:00,
2013-05-06 04:32:00,45.1,40.0,30.00,WSW,248,0.0,0.0,82,0.00,CLR,,0.00,WeatherDisplay:10.37,2013-05-06 09:32:00,
2013-05-06 04:37:00,45.0,39.8,30.00,WSW,248,0.0,0.0,82,0.00,CLR,,0.00,WeatherDisplay:10.37,2013-05-06 09:37:00,
2013-05-06 04:42:00,45.0,39.8,30.00,WSW,248,0.0,0.0,82,0.00,CLR,,0.00,WeatherDisplay:10.37,2013-05-06 09:42:00,
2013-05-06 04:47:00,45.0,39.8,30.00,WSW,248,0.0,0.0,82,0.00,CLR,,0.00,WeatherDisplay:10.37,2013-05-06 09:47:00,
2013-05-06 04:52:00,44.8,39.6,30.00,WSW,248,0.0,0.0,82,0.00,CLR,,0.00,WeatherDisplay:10.37,2013-05-06 09:52:00,
2013-05-06 04:57:00,44.8,39.9,30.00,WSW,248,0.0,0.0,83,0.00,CLR,,0.00,WeatherDisplay:10.37,2013-05-06 09:57:00,
2013-05-06 05:02:00,44.8,39.9,30.03,WSW,248,0.0,0.0,83,0.00,CLR,,0.00,WeatherDisplay:10.37,2013-05-06 10:02:00,
2013-05-06 05:07:00,44.6,39.8,30.03,WSW,248,0.0,0.0,83,0.00,CLR,,0.00,WeatherDisplay:10.37,2013-05-06 10:07:00,
2013-05-06 05:12:00,44.6,39.8,30.03,WSW,248,0.0,0.0,83,0.00,CLR,,0.00,WeatherDisplay:10.37,2013-05-06 10:12:00,
2013-05-06 05:17:00,44.6,39.8,30.00,WSW,248,0.0,0.0,83,0.00,CLR,,0.00,WeatherDisplay:10.37,2013-05-06 10:17:00,
2013-05-06 05:22:00,44.6,39.8,30.00,WSW,248,0.0,0.0,83,0.00,CLR,,0.00,WeatherDisplay:10.37,2013-05-06 10:22:00,
2013-05-06 05:27:00,44.6,39.8,30.00,WSW,248,0.0,0.0,83,0.00,CLR,,0.00,WeatherDisplay:10.37,2013-05-06 10:27:00,
2013-05-06 05:32:00,44.6,39.8,30.00,WSW,248,0.0,0.0,83,0.00,CLR,,0.00,WeatherDisplay:10.37,2013-05-06 10:32:00,
2013-05-06 05:37:00,44.6,39.8,30.00,WSW,248,0.0,0.0,83,0.00,CLR,,0.00,WeatherDisplay:10.37,2013-05-06 10:37:00,
2013-05-06 05:42:00,44.4,39.6,30.00,WSW,248,0.0,0.0,83,0.00,CLR,,0.00,WeatherDisplay:10.37,2013-05-06 10:42:00,
2013-05-06 05:47:00,44.2,39.4,30.03,WSW,248,0.0,0.0,83,0.00,CLR,,0.00,WeatherDisplay:10.37,2013-05-06 10:47:00,
2013-05-06 05:52:00,44.2,39.4,30.03,WSW,248,0.0,0.0,83,0.00,CLR,,0.00,WeatherDisplay:10.37,2013-05-06 10:52:00,
2013-05-06 05:57:00,44.2,39.4,30.03,WSW,248,0.0,0.0,83,0.00,CLR,,0.00,WeatherDisplay:10.37,2013-05-06 10:57:00,
2013-05-06 06:02:00,44.2,39.4,30.03,WSW,248,0.0,0.0,83,0.00,CLR,,0.00,WeatherDisplay:10.37,2013-05-06 11:02:00,
2013-05-06 06:07:00,44.2,39.7,30.03,WSW,248,0.0,0.0,84,0.00,CLR,,0.00,WeatherDisplay:10.37,2013-05-06 11:07:00,
2013-05-06 06:12:00,44.2,40.0,30.03,WSW,248,0.0,0.0,85,0.00,CLR,,0.00,WeatherDisplay:10.37,2013-05-06 11:12:00,
2013-05-06 06:17:00,44.2,40.0,30.03,WSW,248,0.0,0.0,85,0.00,CLR,,0.00,WeatherDisplay:10.37,2013-05-06 11:17:00,
2013-05-06 06:22:00,44.2,39.7,30.03,WSW,248,0.0,0.0,84,0.00,CLR,,0.00,WeatherDisplay:10.37,2013-05-06 11:22:00,
2013-05-06 06:27:00,44.2,40.0,30.03,WSW,248,0.0,0.0,85,0.00,CLR,,0.00,WeatherDisplay:10.37,2013-05-06 11:27:00,
2013-05-06 06:32:00,44.4,40.2,30.03,WSW,248,0.0,0.0,85,0.00,CLR,,0.00,WeatherDisplay:10.37,2013-05-06 11:32:00,
2013-05-06 06:37:00,44.6,40.4,30.03,WSW,248,0.0,0.0,85,0.00,CLR,,0.00,WeatherDisplay:10.37,2013-05-06 11:37:00,
2013-05-06 06:42:00,44.8,40.5,30.03,WSW,248,0.0,0.0,85,0.00,CLR,,0.00,WeatherDisplay:10.37,2013-05-06 11:42:00,
2013-05-06 06:47:00,45.3,41.1,30.03,WSW,248,0.0,0.0,85,0.00,CLR,,0.00,WeatherDisplay:10.37,2013-05-06 11:47:00,
2013-05-06 06:52:00,45.7,41.4,30.03,WSW,248,0.0,0.0,85,0.00,CLR,,0.00,WeatherDisplay:10.37,2013-05-06 11:52:00,
2013-05-06 06:57:00,45.9,41.6,30.03,SW,225,0.0,0.0,85,0.00,CLR,,0.00,WeatherDisplay:10.37,2013-05-06 11:57:00,
2013-05-06 07:02:00,46.0,42.1,30.03,SW,225,0.0,0.0,86,0.00,CLR,,0.00,WeatherDisplay:10.37,2013-05-06 12:02:00,
2013-05-06 07:08:00,46.4,42.1,30.03,SW,225,0.0,0.0,85,0.00,CLR,,0.00,WeatherDisplay:10.37,2013-05-06 12:08:00,
2013-05-06 07:13:00,46.9,43.0,30.03,SW,225,0.0,0.0,86,0.00,CLR,,0.00,WeatherDisplay:10.37,2013-05-06 12:13:00,
2013-05-06 07:18:00,47.5,43.5,30.03,SSW,202,1.1,1.1,86,0.00,CLR,,0.00,WeatherDisplay:10.37,2013-05-06 12:18:00,
2013-05-06 07:23:00,49.5,45.8,30.03,SSW,202,1.1,0.0,87,0.00,CLR,,0.00,WeatherDisplay:10.37,2013-05-06 12:23:00,
2013-05-06 07:28:00,51.8,48.7,30.03,SSE,158,2.3,2.3,89,0.00,CLR,,0.00,WeatherDisplay:10.37,2013-05-06 12:28:00,
2013-05-06 07:33:00,53.4,50.3,30.03,SE,135,2.3,2.3,89,0.00,CLR,,0.00,WeatherDisplay:10.37,2013-05-06 12:33:00,
2013-05-06 07:38:00,55.2,52.0,30.03,South,180,2.3,2.3,89,0.00,CLR,,0.00,WeatherDisplay:10.37,2013-05-06 12:38:00,
2013-05-06 07:43:00,57.4,53.5,30.03,SSE,158,2.3,2.3,87,0.00,CLR,,0.00,WeatherDisplay:10.37,2013-05-06 12:43:00,
2013-05-06 07:48:00,60.1,55.2,30.03,SSE,158,2.4,2.4,84,0.00,CLR,,0.00,WeatherDisplay:10.37,2013-05-06 12:48:00,
2013-05-06 07:53:00,62.2,54.9,30.03,SSE,158,4.6,4.6,77,0.00,CLR,,0.00,WeatherDisplay:10.37,2013-05-06 12:53:00,
2013-05-06 07:58:00,63.9,53.9,30.03,SSE,158,4.6,4.6,70,0.00,CLR,,0.00,WeatherDisplay:10.37,2013-05-06 12:58:00,
2013-05-06 08:03:00,65.7,52.7,30.03,SE,135,3.5,3.5,63,0.00,CLR,,0.00,WeatherDisplay:10.37,2013-05-06 13:03:00,
2013-05-06 08:08:00,67.1,49.9,30.03,SSE,158,3.5,3.5,54,0.00,CLR,,0.00,WeatherDisplay:10.37,2013-05-06 13:08:00,
2013-05-06 08:13:00,68.0,48.1,30.03,SSE,158,3.5,3.5,49,0.00,CLR,,0.00,WeatherDisplay:10.37,2013-05-06 13:13:00,
2013-05-06 08:18:00,69.3,47.0,30.03,ESE,112,4.6,4.6,45,0.00,CLR,,0.00,WeatherDisplay:10.37,2013-05-06 13:18:00,
2013-05-06 08:23:00,70.2,44.0,30.03,SW,225,3.6,3.6,39,0.00,CLR,,0.00,WeatherDisplay:10.37,2013-05-06 13:23:00,
2013-05-06 08:28:00,70.9,42.6,30.03,SE,135,3.5,3.5,36,0.00,CLR,,0.00,WeatherDisplay:10.37,2013-05-06 13:28:00,
2013-05-06 08:33:00,71.6,40.2,30.03,SSE,158,3.5,3.5,32,0.00,CLR,,0.00,WeatherDisplay:10.37,2013-05-06 13:33:00,
2013-05-06 08:38:00,72.5,42.5,30.03,South,180,3.6,3.6,34,0.00,CLR,,0.00,WeatherDisplay:10.37,2013-05-06 13:38:00,
2013-05-06 08:43:00,72.9,41.3,30.03,SSE,158,4.6,4.6,32,0.00,CLR,,0.00,WeatherDisplay:10.37,2013-05-06 13:43:00,
2013-05-06 08:48:00,73.6,41.9,30.03,SSE,158,4.0,4.0,32,0.00,CLR,,0.00,WeatherDisplay:10.37,2013-05-06 13:48:00,
2013-05-06 08:53:00,74.3,41.7,30.03,SSE,158,4.6,4.6,31,0.00,CLR,,0.00,WeatherDisplay:10.37,2013-05-06 13:53:00,
2013-05-06 08:58:00,75.2,40.7,30.03,SSE,158,4.6,4.6,29,0.00,CLR,,0.00,WeatherDisplay:10.37,2013-05-06 13:58:00,
2013-05-06 09:03:00,75.7,38.4,30.03,East,90,4.6,4.6,26,0.00,CLR,,0.00,WeatherDisplay:10.37,2013-05-06 14:03:00,
2013-05-06 09:08:00,75.9,37.6,30.03,SSE,158,3.8,3.8,25,0.00,CLR,,0.00,WeatherDisplay:10.37,2013-05-06 14:08:00,
2013-05-06 09:13:00,77.0,37.4,30.03,West,270,4.7,4.7,24,0.00,CLR,,0.00,WeatherDisplay:10.37,2013-05-06 14:13:00,
2013-05-06 09:18:00,77.5,36.8,30.03,ESE,112,4.6,4.6,23,0.00,CLR,,0.00,WeatherDisplay:10.37,2013-05-06 14:18:00,
2013-05-06 09:23:00,78.4,38.6,30.03,SSW,202,5.8,5.8,24,0.00,CLR,,0.00,WeatherDisplay:10.37,2013-05-06 14:23:00,
2013-05-06 09:28:00,78.8,35.5,30.00,SSE,158,5.8,5.8,21,0.00,CLR,,0.00,WeatherDisplay:10.37,2013-05-06 14:28:00,
2013-05-06 09:33:00,78.4,35.2,30.00,NNE,22,4.7,4.7,21,0.00,CLR,,0.00,WeatherDisplay:10.37,2013-05-06 14:33:00,
2013-05-06 09:38:00,78.6,36.6,30.00,SE,135,5.4,5.4,22,0.00,CLR,,0.00,WeatherDisplay:10.37,2013-05-06 14:38:00,
2013-05-06 09:43:00,79.5,37.3,30.03,SSE,158,5.8,5.8,22,0.00,CLR,,0.00,WeatherDisplay:10.37,2013-05-06 14:43:00,
2013-05-06 09:48:00,80.2,36.7,30.03,North,0,5.8,5.8,21,0.00,CLR,,0.00,WeatherDisplay:10.37,2013-05-06 14:48:00,
2013-05-06 09:53:00,80.8,37.2,30.03,South,180,4.6,4.6,21,0.00,CLR,,0.00,WeatherDisplay:10.37,2013-05-06 14:53:00,
2013-05-06 09:58:00,80.8,36.0,30.03,South,180,5.8,5.8,20,0.00,CLR,,0.00,WeatherDisplay:10.37,2013-05-06 14:58:00,
2013-05-06 10:03:00,81.0,36.1,30.03,SSE,158,8.1,8.1,20,0.00,CLR,,0.00,WeatherDisplay:10.37,2013-05-06 15:03:00,
2013-05-06 10:08:00,81.1,36.2,30.03,South,180,6.9,6.9,20,0.00,CLR,,0.00,WeatherDisplay:10.37,2013-05-06 15:08:00,
2013-05-06 10:13:00,80.6,35.8,30.03,East,90,6.9,6.9,20,0.00,CLR,,0.00,WeatherDisplay:10.37,2013-05-06 15:13:00,
2013-05-06 10:18:00,78.8,34.3,30.03,SSE,158,3.5,4.0,20,0.00,CLR,,0.00,WeatherDisplay:10.37,2013-05-06 15:18:00,
2013-05-06 10:23:00,79.3,34.8,30.03,SE,135,6.2,6.2,20,0.00,CLR,,0.00,WeatherDisplay:10.37,2013-05-06 15:23:00,
2013-05-06 10:28:00,77.5,30.7,30.00,SE,135,3.6,4.0,18,0.00,CLR,,0.00,WeatherDisplay:10.37,2013-05-06 15:28:00,
2013-05-06 10:33:00,78.4,34.0,30.00,SE,135,4.0,4.0,20,0.00,CLR,,0.00,WeatherDisplay:10.37,2013-05-06 15:33:00,
2013-05-06 10:38:00,78.8,34.3,30.00,ENE,68,5.9,5.9,20,0.00,CLR,,0.00,WeatherDisplay:10.37,2013-05-06 15:38:00,
2013-05-06 10:44:00,79.5,36.1,30.00,ENE,68,3.8,4.7,21,0.00,CLR,,0.00,WeatherDisplay:10.37,2013-05-06 15:44:00,
2013-05-06 10:49:00,78.3,33.9,30.00,NE,45,5.8,5.8,20,0.00,CLR,,0.00,WeatherDisplay:10.37,2013-05-06 15:49:00,
2013-05-06 10:54:00,76.6,29.9,30.00,East,90,6.9,6.9,18,0.00,CLR,,0.00,WeatherDisplay:10.37,2013-05-06 15:54:00,
2013-05-06 10:59:00,76.5,33.6,30.03,East,90,5.8,5.8,21,0.00,CLR,,0.00,WeatherDisplay:10.37,2013-05-06 15:59:00,
2013-05-06 11:04:00,76.8,33.9,30.03,East,90,3.5,3.5,21,0.00,CLR,,0.00,WeatherDisplay:10.37,2013-05-06 16:04:00,
2013-05-06 11:09:00,77.9,34.8,30.03,South,180,8.1,8.1,21,0.00,CLR,,0.00,WeatherDisplay:10.37,2013-05-06 16:09:00,
2013-05-06 11:14:00,78.8,35.5,30.03,NE,45,4.6,4.6,21,0.00,CLR,,0.00,WeatherDisplay:10.37,2013-05-06 16:14:00,
2013-05-06 11:19:00,78.6,35.4,30.03,SSE,158,4.6,4.6,21,0.00,CLR,,0.00,WeatherDisplay:10.37,2013-05-06 16:19:00,
2013-05-06 11:24:00,79.3,36.0,30.03,ESE,112,4.7,4.7,21,0.00,CLR,,0.00,WeatherDisplay:10.37,2013-05-06 16:24:00,
2013-05-06 11:29:00,79.9,36.4,30.03,South,180,4.6,4.6,21,0.00,CLR,,0.00,WeatherDisplay:10.37,2013-05-06 16:29:00,
2013-05-06 11:34:00,78.6,35.4,30.03,South,180,6.9,6.9,21,0.00,CLR,,0.00,WeatherDisplay:10.37,2013-05-06 16:34:00,
2013-05-06 11:39:00,79.3,36.0,30.03,ENE,68,6.9,6.9,21,0.00,CLR,,0.00,WeatherDisplay:10.37,2013-05-06 16:39:00,
2013-05-06 11:44:00,79.7,36.3,30.03,NE,45,4.6,4.6,21,0.00,CLR,,0.00,WeatherDisplay:10.37,2013-05-06 16:44:00,
2013-05-06 11:49:00,79.2,34.6,30.03,NNE,22,8.1,8.1,20,0.00,CLR,,0.00,WeatherDisplay:10.37,2013-05-06 16:49:00,
2013-05-06 11:54:00,77.0,30.2,30.03,North,0,14.7,14.7,18,0.00,CLR,,0.00,WeatherDisplay:10.37,2013-05-06 16:54:00,
2013-05-06 11:59:00,76.5,33.6,30.03,NNE,22,8.1,8.1,21,0.00,CLR,,0.00,WeatherDisplay:10.37,2013-05-06 16:59:00,
2013-05-06 12:04:00,75.2,31.3,30.03,South,180,6.9,6.9,20,0.00,CLR,,0.00,WeatherDisplay:10.37,2013-05-06 17:04:00,
2013-05-06 12:09:00,75.9,33.2,30.03,NNE,22,8.1,8.1,21,0.00,CLR,,0.00,WeatherDisplay:10.37,2013-05-06 17:09:00,
2013-05-06 12:14:00,76.5,33.6,30.03,SSE,158,3.5,3.5,21,0.00,CLR,,0.00,WeatherDisplay:10.37,2013-05-06 17:14:00,
2013-05-06 12:19:00,77.7,34.7,30.03,ESE,112,8.1,8.1,21,0.00,CLR,,0.00,WeatherDisplay:10.37,2013-05-06 17:19:00,
2013-05-06 12:24:00,77.9,36.0,30.03,ENE,68,5.9,5.9,22,0.00,CLR,,0.00,WeatherDisplay:10.37,2013-05-06 17:24:00,
2013-05-06 12:29:00,77.9,34.8,30.00,NNE,22,4.0,4.0,21,0.00,CLR,,0.00,WeatherDisplay:10.37,2013-05-06 17:29:00,
2013-05-06 12:34:00,77.7,34.7,30.00,NE,45,3.8,3.8,21,0.00,CLR,,0.00,WeatherDisplay:10.37,2013-05-06 17:34:00,
2013-05-06 12:39:00,77.4,34.4,30.00,SSE,158,8.1,8.1,21,0.00,CLR,,0.00,WeatherDisplay:10.37,2013-05-06 17:39:00,
2013-05-06 12:44:00,77.5,34.5,30.00,SSE,158,6.9,6.9,21,0.00,CLR,,0.00,WeatherDisplay:10.37,2013-05-06 17:44:00,
2013-05-06 12:49:00,78.1,36.1,30.00,ESE,112,6.9,6.9,22,0.00,CLR,,0.00,WeatherDisplay:10.37,2013-05-06 17:49:00,
2013-05-06 12:54:00,77.5,34.5,30.00,East,90,5.8,5.8,21,0.00,CLR,,0.00,WeatherDisplay:10.37,2013-05-06 17:54:00,
2013-05-06 12:59:00,78.3,36.3,29.97,SSE,158,5.8,5.8,22,0.00,CLR,,0.00,WeatherDisplay:10.37,2013-05-06 17:59:00,
2013-05-06 13:04:00,78.6,36.6,29.97,South,180,6.0,6.0,22,0.00,CLR,,0.00,WeatherDisplay:10.37,2013-05-06 18:04:00,
2013-05-06 13:09:00,78.4,36.4,29.97,SE,135,4.9,4.9,22,0.00,CLR,,0.00,WeatherDisplay:10.37,2013-05-06 18:09:00,
2013-05-06 13:14:00,78.6,36.6,29.97,SSE,158,9.2,9.2,22,0.00,CLR,,0.00,WeatherDisplay:10.37,2013-05-06 18:14:00,
2013-05-06 13:19:00,78.3,36.3,29.97,SSE,158,6.0,6.0,22,0.00,CLR,,0.00,WeatherDisplay:10.37,2013-05-06 18:19:00,
2013-05-06 13:24:00,78.1,36.1,29.97,SSE,158,6.9,6.9,22,0.00,CLR,,0.00,WeatherDisplay:10.37,2013-05-06 18:24:00,
2013-05-06 13:29:00,77.9,36.0,29.97,SSE,158,9.2,9.2,22,0.00,CLR,,0.00,WeatherDisplay:10.37,2013-05-06 18:29:00,
2013-05-06 13:34:00,77.7,35.8,29.97,South,180,8.1,8.1,22,0.00,CLR,,0.00,WeatherDisplay:10.37,2013-05-06 18:34:00,
2013-05-06 13:39:00,77.5,35.7,29.97,South,180,9.2,9.2,22,0.00,CLR,,0.00,WeatherDisplay:10.37,2013-05-06 18:39:00,
2013-05-06 13:44:00,77.7,35.8,29.94,South,180,5.8,5.8,22,0.00,CLR,,0.00,WeatherDisplay:10.37,2013-05-06 18:44:00,
2013-05-06 13:49:00,77.5,35.7,29.94,NW,315,8.1,8.1,22,0.00,CLR,,0.00,WeatherDisplay:10.37,2013-05-06 18:49:00,
2013-05-06 13:54:00,77.4,35.5,29.94,SE,135,5.8,5.8,22,0.00,CLR,,0.00,WeatherDisplay:10.37,2013-05-06 18:54:00,
2013-05-06 13:59:00,77.5,35.7,29.97,ESE,112,9.2,9.2,22,0.00,CLR,,0.00,WeatherDisplay:10.37,2013-05-06 18:59:00,
2013-05-06 14:04:00,77.0,34.1,29.97,SSE,158,3.5,3.5,21,0.00,CLR,,0.00,WeatherDisplay:10.37,2013-05-06 19:04:00,
2013-05-06 14:09:00,76.3,33.5,29.97,SSE,158,5.8,5.8,21,0.00,CLR,,0.00,WeatherDisplay:10.37,2013-05-06 19:09:00,
2013-05-06 14:14:00,76.3,34.6,29.97,ENE,68,4.6,4.6,22,0.00,CLR,,0.00,WeatherDisplay:10.37,2013-05-06 19:14:00,
2013-05-06 14:19:00,76.5,34.8,29.97,East,90,8.1,8.1,22,0.00,CLR,,0.00,WeatherDisplay:10.37,2013-05-06 19:19:00,
2013-05-06 14:24:00,76.6,34.9,29.97,NNE,22,4.6,4.6,22,0.00,CLR,,0.00,WeatherDisplay:10.37,2013-05-06 19:24:00,
2013-05-06 14:29:00,76.1,34.5,29.97,South,180,4.6,4.6,22,0.00,CLR,,0.00,WeatherDisplay:10.37,2013-05-06 19:29:00,
2013-05-06 14:34:00,75.0,33.6,29.97,NNW,338,4.3,4.3,22,0.00,CLR,,0.00,WeatherDisplay:10.37,2013-05-06 19:34:00,
2013-05-06 14:39:00,75.2,33.7,29.97,ESE,112,3.8,3.8,22,0.00,CLR,,0.00,WeatherDisplay:10.37,2013-05-06 19:39:00,
2013-05-06 14:44:00,75.2,33.7,29.97,SSE,158,8.1,8.1,22,0.00,CLR,,0.00,WeatherDisplay:10.37,2013-05-06 19:44:00,
2013-05-06 14:49:00,75.0,33.6,29.97,SSE,158,5.8,5.8,22,0.00,CLR,,0.00,WeatherDisplay:10.37,2013-05-06 19:49:00,
2013-05-06 14:54:00,75.4,35.0,29.97,SSE,158,7.1,7.1,23,0.00,CLR,,0.00,WeatherDisplay:10.37,2013-05-06 19:54:00,
2013-05-06 14:59:00,75.4,33.9,29.94,South,180,4.6,4.6,22,0.00,CLR,,0.00,WeatherDisplay:10.37,2013-05-06 19:59:00,
2013-05-06 15:04:00,75.4,33.9,29.94,South,180,5.6,5.6,22,0.00,CLR,,0.00,WeatherDisplay:10.37,2013-05-06 20:04:00,
2013-05-06 15:09:00,75.6,35.1,29.94,SSW,202,5.8,5.8,23,0.00,CLR,,0.00,WeatherDisplay:10.37,2013-05-06 20:09:00,
2013-05-06 15:14:00,75.7,35.3,29.94,SSE,158,5.8,5.8,23,0.00,CLR,,0.00,WeatherDisplay:10.37,2013-05-06 20:14:00,
2013-05-06 15:19:00,75.9,35.4,29.94,South,180,6.0,6.0,23,0.00,CLR,,0.00,WeatherDisplay:10.37,2013-05-06 20:19:00,
2013-05-06 15:24:00,75.9,35.4,29.94,NNE,22,4.3,4.3,23,0.00,CLR,,0.00,WeatherDisplay:10.37,2013-05-06 20:24:00,
2013-05-06 15:29:00,75.7,35.3,29.94,East,90,5.8,5.8,23,0.00,CLR,,0.00,WeatherDisplay:10.37,2013-05-06 20:29:00,
2013-05-06 15:34:00,75.9,35.4,29.94,SE,135,8.1,8.1,23,0.00,CLR,,0.00,WeatherDisplay:10.37,2013-05-06 20:34:00,
2013-05-06 15:39:00,75.6,34.0,29.94,WSW,248,6.4,6.4,22,0.00,CLR,,0.00,WeatherDisplay:10.37,2013-05-06 20:39:00,
2013-05-06 15:44:00,75.4,35.0,29.91,South,180,5.6,5.6,23,0.00,CLR,,0.00,WeatherDisplay:10.37,2013-05-06 20:44:00,
2013-05-06 15:49:00,75.6,35.1,29.91,WSW,248,6.9,6.9,23,0.00,CLR,,0.00,WeatherDisplay:10.37,2013-05-06 20:49:00,
2013-05-06 15:54:00,75.6,35.1,29.91,South,180,4.6,4.6,23,0.00,CLR,,0.00,WeatherDisplay:10.37,2013-05-06 20:54:00,
2013-05-06 15:59:00,75.2,33.7,29.91,ESE,112,3.8,3.8,22,0.00,CLR,,0.00,WeatherDisplay:10.37,2013-05-06 20:59:00,
2013-05-06 16:04:00,74.8,33.4,29.91,SSW,202,5.8,5.8,22,0.00,CLR,,0.00,WeatherDisplay:10.37,2013-05-06 21:04:00,
2013-05-06 16:09:00,75.0,34.7,29.91,SSE,158,3.5,3.5,23,0.00,CLR,,0.00,WeatherDisplay:10.37,2013-05-06 21:09:00,
2013-05-06 16:14:00,75.2,34.8,29.91,ESE,112,6.9,6.9,23,0.00,CLR,,0.00,WeatherDisplay:10.37,2013-05-06 21:14:00,
2013-05-06 16:19:00,75.0,35.8,29.91,SSW,202,5.8,5.8,24,0.00,CLR,,0.00,WeatherDisplay:10.37,2013-05-06 21:19:00,
2013-05-06 16:24:00,75.0,34.7,29.91,SSE,158,3.5,3.5,23,0.00,CLR,,0.00,WeatherDisplay:10.37,2013-05-06 21:24:00,
2013-05-06 16:29:00,75.0,34.7,29.91,ENE,68,4.6,4.6,23,0.00,CLR,,0.00,WeatherDisplay:10.37,2013-05-06 21:29:00,
2013-05-06 16:34:00,74.8,34.5,29.91,NE,45,9.2,9.2,23,0.00,CLR,,0.00,WeatherDisplay:10.37,2013-05-06 21:34:00,
2013-05-06 16:39:00,74.7,34.4,29.91,South,180,7.4,7.4,23,0.00,CLR,,0.00,WeatherDisplay:10.37,2013-05-06 21:39:00,
2013-05-06 16:44:00,74.8,35.6,29.91,SSE,158,4.6,4.6,24,0.00,CLR,,0.00,WeatherDisplay:10.37,2013-05-06 21:44:00,
2013-05-06 16:49:00,74.5,34.2,29.91,East,90,12.1,12.1,23,0.00,CLR,,0.00,WeatherDisplay:10.37,2013-05-06 21:49:00,
2013-05-06 16:54:00,74.5,34.2,29.91,SE,135,5.4,5.4,23,0.00,CLR,,0.00,WeatherDisplay:10.37,2013-05-06 21:54:00,
2013-05-06 17:00:00,74.5,34.2,29.91,NNE,22,2.3,2.3,23,0.00,CLR,,0.00,WeatherDisplay:10.37,2013-05-06 22:00:00,
2013-05-06 17:05:00,74.5,34.2,29.91,SSE,158,4.6,4.6,23,0.00,CLR,,0.00,WeatherDisplay:10.37,2013-05-06 22:05:00,
2013-05-06 17:10:00,74.1,33.9,29.91,NNW,338,5.9,5.9,23,0.00,CLR,,0.00,WeatherDisplay:10.37,2013-05-06 22:10:00,
2013-05-06 17:15:00,73.9,33.8,29.91,NNE,22,6.2,6.2,23,0.00,CLR,,0.00,WeatherDisplay:10.37,2013-05-06 22:15:00,
2013-05-06 17:20:00,73.8,33.6,29.91,East,90,4.6,4.6,23,0.00,CLR,,0.00,WeatherDisplay:10.37,2013-05-06 22:20:00,
2013-05-06 17:25:00,73.8,33.6,29.91,ENE,68,3.5,3.5,23,0.00,CLR,,0.00,WeatherDisplay:10.37,2013-05-06 22:25:00,
2013-05-06 17:30:00,73.8,33.6,29.94,ESE,112,10.4,10.4,23,0.00,CLR,,0.00,WeatherDisplay:10.37,2013-05-06 22:30:00,
2013-05-06 17:35:00,73.8,33.6,29.94,SE,135,5.8,5.8,23,0.00,CLR,,0.00,WeatherDisplay:10.37,2013-05-06 22:35:00,
2013-05-06 17:40:00,74.1,35.0,29.94,NNE,22,5.8,5.8,24,0.00,CLR,,0.00,WeatherDisplay:10.37,2013-05-06 22:40:00,
2013-05-06 17:45:00,74.1,35.0,29.91,NNE,22,4.6,4.6,24,0.00,CLR,,0.00,WeatherDisplay:10.37,2013-05-06 22:45:00,
2013-05-06 17:50:00,73.9,33.8,29.91,NNE,22,7.4,7.4,23,0.00,CLR,,0.00,WeatherDisplay:10.37,2013-05-06 22:50:00,
2013-05-06 17:55:00,73.8,33.6,29.91,South,180,5.8,5.8,23,0.00,CLR,,0.00,WeatherDisplay:10.37,2013-05-06 22:55:00,
2013-05-06 18:00:00,73.6,33.5,29.91,North,0,8.1,8.1,23,0.00,CLR,,0.00,WeatherDisplay:10.37,2013-05-06 23:00:00,
2013-05-06 18:05:00,73.2,34.2,29.91,North,0,7.6,7.6,24,0.00,CLR,,0.00,WeatherDisplay:10.37,2013-05-06 23:05:00,
2013-05-06 18:10:00,72.9,33.9,29.91,West,270,5.8,5.8,24,0.00,CLR,,0.00,WeatherDisplay:10.37,2013-05-06 23:10:00,
2013-05-06 18:15:00,72.7,33.8,29.91,North,0,5.8,5.8,24,0.00,CLR,,0.00,WeatherDisplay:10.37,2013-05-06 23:15:00,
2013-05-06 18:20:00,72.9,33.9,29.91,ENE,68,5.8,5.8,24,0.00,CLR,,0.00,WeatherDisplay:10.37,2013-05-06 23:20:00,
2013-05-06 18:25:00,72.3,33.5,29.91,NNW,338,9.2,9.2,24,0.00,CLR,,0.00,WeatherDisplay:10.37,2013-05-06 23:25:00,
2013-05-06 18:30:00,72.1,33.3,29.91,South,180,8.1,8.1,24,0.00,CLR,,0.00,WeatherDisplay:10.37,2013-05-06 23:30:00,
2013-05-06 18:35:00,72.1,34.4,29.91,NNW,338,1.4,1.4,25,0.00,CLR,,0.00,WeatherDisplay:10.37,2013-05-06 23:35:00,
2013-05-06 18:40:00,72.0,34.2,29.91,WSW,248,3.5,3.5,25,0.00,CLR,,0.00,WeatherDisplay:10.37,2013-05-06 23:40:00,
2013-05-06 18:45:00,71.8,35.0,29.91,North,0,6.0,6.0,26,0.00,CLR,,0.00,WeatherDisplay:10.37,2013-05-06 23:45:00,
2013-05-06 18:50:00,71.4,35.7,29.91,WNW,292,3.5,3.5,27,0.00,CLR,,0.00,WeatherDisplay:10.37,2013-05-06 23:50:00,
2013-05-06 18:55:00,71.2,35.5,29.91,North,0,4.6,4.6,27,0.00,CLR,,0.00,WeatherDisplay:10.37,2013-05-06 23:55:00,
2013-05-06 19:00:00,71.1,35.4,29.91,North,0,4.6,4.6,27,0.00,CLR,,0.00,WeatherDisplay:10.37,2013-05-07 00:00:00,
2013-05-06 19:05:00,70.9,36.1,29.91,NNW,338,2.3,2.3,28,0.00,CLR,,0.00,WeatherDisplay:10.37,2013-05-07 00:05:00,
2013-05-06 19:10:00,70.5,35.8,29.91,NNE,22,3.5,3.5,28,0.00,CLR,,0.00,WeatherDisplay:10.37,2013-05-07 00:10:00,
2013-05-06 19:15:00,70.3,36.6,29.88,NE,45,3.5,3.5,29,0.00,CLR,,0.00,WeatherDisplay:10.37,2013-05-07 00:15:00,
2013-05-06 19:20:00,70.0,36.2,29.88,SSE,158,1.1,1.1,29,0.00,CLR,,0.00,WeatherDisplay:10.37,2013-05-07 00:20:00,
2013-05-06 19:25:00,69.6,37.6,29.88,SSE,158,1.1,1.1,31,0.00,CLR,,0.00,WeatherDisplay:10.37,2013-05-07 00:25:00,
2013-05-06 19:30:00,69.3,38.1,29.91,SSE,158,1.1,1.1,32,0.00,CLR,,0.00,WeatherDisplay:10.37,2013-05-07 00:30:00,
2013-05-06 19:35:00,68.9,38.6,29.91,SSE,158,2.3,2.3,33,0.00,CLR,,0.00,WeatherDisplay:10.37,2013-05-07 00:35:00,
2013-05-06 19:40:00,68.2,38.7,29.91,SSE,158,1.1,1.1,34,0.00,CLR,,0.00,WeatherDisplay:10.37,2013-05-07 00:40:00,
2013-05-06 19:45:00,67.5,39.6,29.91,SSE,158,0.0,0.0,36,0.00,CLR,,0.00,WeatherDisplay:10.37,2013-05-07 00:45:00,
2013-05-06 19:50:00,66.7,38.9,29.91,SSE,158,1.1,1.1,36,0.00,CLR,,0.00,WeatherDisplay:10.37,2013-05-07 00:50:00,
2013-05-06 19:55:00,66.4,38.6,29.91,SSE,158,1.1,1.1,36,0.00,CLR,,0.00,WeatherDisplay:10.37,2013-05-07 00:55:00,
2013-05-06 20:00:00,66.0,39.0,29.91,SSE,158,0.0,0.0,37,0.00,CLR,,0.00,WeatherDisplay:10.37,2013-05-07 01:00:00,
2013-05-06 20:05:00,65.5,39.9,29.91,SSE,158,0.0,0.0,39,0.00,CLR,,0.00,WeatherDisplay:10.37,2013-05-07 01:05:00,
2013-05-06 20:10:00,64.9,40.7,29.91,SSE,158,0.0,0.0,41,0.00,CLR,,0.00,WeatherDisplay:10.37,2013-05-07 01:10:00,
2013-05-06 20:15:00,64.4,40.8,29.94,SSE,158,1.1,0.0,42,0.00,CLR,,0.00,WeatherDisplay:10.37,2013-05-07 01:15:00,
2013-05-06 20:20:00,63.9,41.5,29.94,SSE,158,0.0,0.0,44,0.00,CLR,,0.00,WeatherDisplay:10.37,2013-05-07 01:20:00,
2013-05-06 20:25:00,63.5,40.6,29.94,SSE,158,1.1,0.0,43,0.00,CLR,,0.00,WeatherDisplay:10.37,2013-05-07 01:25:00,
2013-05-06 20:30:00,63.3,41.0,29.94,SSE,158,0.0,0.0,44,0.00,CLR,,0.00,WeatherDisplay:10.37,2013-05-07 01:30:00,
2013-05-06 20:35:00,63.1,41.4,29.94,SSE,158,0.0,0.0,45,0.00,CLR,,0.00,WeatherDisplay:10.37,2013-05-07 01:35:00,
2013-05-06 20:40:00,62.6,41.5,29.94,SSE,158,0.0,0.0,46,0.00,CLR,,0.00,WeatherDisplay:10.37,2013-05-07 01:40:00,
2013-05-06 20:45:00,62.2,41.7,29.94,SSE,158,0.0,0.0,47,0.00,CLR,,0.00,WeatherDisplay:10.37,2013-05-07 01:45:00,
2013-05-06 20:50:00,61.9,42.0,29.94,SSE,158,2.3,2.3,48,0.00,CLR,,0.00,WeatherDisplay:10.37,2013-05-07 01:50:00,
2013-05-06 20:55:00,61.7,41.8,29.94,SSE,158,1.1,1.1,48,0.00,CLR,,0.00,WeatherDisplay:10.37,2013-05-07 01:55:00,
2013-05-06 21:00:00,61.3,42.5,29.94,SSE,158,0.0,0.0,50,0.00,CLR,,0.00,WeatherDisplay:10.37,2013-05-07 02:00:00,
2013-05-06 21:05:00,61.2,42.9,29.94,SSE,158,0.0,0.0,51,0.00,CLR,,0.00,WeatherDisplay:10.37,2013-05-07 02:05:00,
2013-05-06 21:10:00,61.2,42.4,29.94,SSE,158,0.9,0.0,50,0.00,CLR,,0.00,WeatherDisplay:10.37,2013-05-07 02:10:00,
2013-05-06 21:15:00,61.0,43.2,29.94,North,0,2.2,2.2,52,0.00,CLR,,0.00,WeatherDisplay:10.37,2013-05-07 02:15:00,
2013-05-06 21:20:00,60.8,43.1,29.94,North,0,2.4,2.4,52,0.00,CLR,,0.00,WeatherDisplay:10.37,2013-05-07 02:20:00,
2013-05-06 21:25:00,60.6,43.9,29.94,North,0,2.3,2.3,54,0.00,CLR,,0.00,WeatherDisplay:10.37,2013-05-07 02:25:00,
2013-05-06 21:30:00,60.3,44.0,29.94,North,0,1.1,1.4,55,0.00,CLR,,0.00,WeatherDisplay:10.37,2013-05-07 02:30:00,
2013-05-06 21:35:00,60.3,45.0,29.94,SSE,158,0.0,0.0,57,0.00,CLR,,0.00,WeatherDisplay:10.37,2013-05-07 02:35:00,
2013-05-06 21:40:00,60.1,45.2,29.94,SSE,158,2.0,0.0,58,0.00,CLR,,0.00,WeatherDisplay:10.37,2013-05-07 02:40:00,
2013-05-06 21:45:00,59.9,45.1,29.94,ESE,112,3.5,3.5,58,0.00,CLR,,0.00,WeatherDisplay:10.37,2013-05-07 02:45:00,
2013-05-06 21:50:00,59.7,45.4,29.94,North,0,0.0,0.0,59,0.00,CLR,,0.00,WeatherDisplay:10.37,2013-05-07 02:50:00,
2013-05-06 21:55:00,59.5,45.6,29.94,North,0,1.6,1.6,60,0.00,CLR,,0.00,WeatherDisplay:10.37,2013-05-07 02:55:00,
2013-05-06 22:00:00,59.4,45.9,29.97,North,0,1.1,1.1,61,0.00,CLR,,0.00,WeatherDisplay:10.37,2013-05-07 03:00:00,
2013-05-06 22:05:00,59.4,45.9,29.97,North,0,2.3,2.3,61,0.00,CLR,,0.00,WeatherDisplay:10.37,2013-05-07 03:05:00,
2013-05-06 22:10:00,59.2,46.6,29.97,North,0,0.0,0.0,63,0.00,CLR,,0.00,WeatherDisplay:10.37,2013-05-07 03:10:00,
2013-05-06 22:15:00,59.2,46.6,29.97,North,0,0.0,0.0,63,0.00,CLR,,0.00,WeatherDisplay:10.37,2013-05-07 03:15:00,
2013-05-06 22:21:00,59.0,46.8,29.97,ENE,68,1.1,0.0,64,0.00,CLR,,0.00,WeatherDisplay:10.37,2013-05-07 03:21:00,
2013-05-06 22:26:00,58.8,47.1,29.97,SSE,158,1.1,0.0,65,0.00,CLR,,0.00,WeatherDisplay:10.37,2013-05-07 03:26:00,
2013-05-06 22:31:00,58.5,47.1,29.97,SSE,158,0.0,0.0,66,0.00,CLR,,0.00,WeatherDisplay:10.37,2013-05-07 03:31:00,
2013-05-06 22:36:00,58.3,47.0,29.97,ESE,112,1.1,1.1,66,0.00,CLR,,0.00,WeatherDisplay:10.37,2013-05-07 03:36:00,
2013-05-06 22:41:00,58.1,46.8,29.97,ESE,112,1.1,0.0,66,0.00,CLR,,0.00,WeatherDisplay:10.37,2013-05-07 03:41:00,
2013-05-06 22:46:00,58.1,47.2,29.97,SE,135,0.0,0.0,67,0.00,CLR,,0.00,WeatherDisplay:10.37,2013-05-07 03:46:00,
2013-05-06 22:51:00,57.9,47.0,29.97,SSE,158,1.1,1.1,67,0.00,CLR,,0.00,WeatherDisplay:10.37,2013-05-07 03:51:00,
2013-05-06 22:56:00,57.7,46.9,29.97,SSE,158,0.0,0.0,67,0.00,CLR,,0.00,WeatherDisplay:10.37,2013-05-07 03:56:00,
2013-05-06 23:01:00,57.6,47.1,29.97,NNE,22,0.0,0.0,68,0.00,CLR,,0.00,WeatherDisplay:10.37,2013-05-07 04:01:00,
2013-05-06 23:06:00,57.6,47.1,29.97,North,0,2.3,2.3,68,0.00,CLR,,0.00,WeatherDisplay:10.37,2013-05-07 04:06:00,
2013-05-06 23:11:00,57.4,47.3,29.97,North,0,0.0,0.0,69,0.00,CLR,,0.00,WeatherDisplay:10.37,2013-05-07 04:11:00,
2013-05-06 23:16:00,57.4,47.3,29.97,SSE,158,0.0,0.0,69,0.00,CLR,,0.00,WeatherDisplay:10.37,2013-05-07 04:16:00,
2013-05-06 23:21:00,57.2,47.1,29.97,South,180,2.3,3.1,69,0.00,CLR,,0.00,WeatherDisplay:10.37,2013-05-07 04:21:00,
2013-05-06 23:26:00,57.2,47.5,29.97,South,180,0.0,0.0,70,0.00,CLR,,0.00,WeatherDisplay:10.37,2013-05-07 04:26:00,
2013-05-06 23:31:00,57.0,47.3,29.97,South,180,1.1,1.1,70,0.00,CLR,,0.00,WeatherDisplay:10.37,2013-05-07 04:31:00,
2013-05-06 23:36:00,57.0,47.7,29.97,South,180,2.3,2.3,71,0.00,CLR,,0.00,WeatherDisplay:10.37,2013-05-07 04:36:00,
2013-05-06 23:41:00,57.0,47.7,29.97,South,180,1.1,0.0,71,0.00,CLR,,0.00,WeatherDisplay:10.37,2013-05-07 04:41:00,
2013-05-06 23:46:00,56.8,47.9,29.97,SSE,158,2.2,2.2,72,0.00,CLR,,0.00,WeatherDisplay:10.37,2013-05-07 04:46:00,
2013-05-06 23:51:00,56.8,47.9,29.97,ESE,112,0.0,0.0,72,0.00,CLR,,0.00,WeatherDisplay:10.37,2013-05-07 04:51:00,
2013-05-06 23:56:00,56.7,47.7,29.97,ESE,112,0.0,0.0,72,0.00,CLR,,0.00,WeatherDisplay:10.37,2013-05-07 04:56:00,